This demonstration page uses our WeatherBlox Daily Observations layout. Learn more.

Left ArrowRight Arrow

38.88101, -77.10428

Hourly Observations for September 11, 2022

Temp ( °F °C ) Dew Point ( °F °C ) Humidity (%) Winds ( mph kmh ) Pressure ( in mb ) Visibility ( mi km ) Precip ( " mm )
12:52 am 00:52 Cloudy 75 23.9 68 20 79 79 SE 8 13 30.19 1023 10 16 0.01 0.13
1:52 am 01:52 Cloudy 74 23.3 69 20.6 85 85 SE 5 7 30.17 1022 10 16 0.00 0.00
2:52 am 02:52 Cloudy 74 23.3 69 20.6 85 85 ESE 7 11 30.16 1021 10 16 0.00 0.00
3:52 am 03:52 Cloudy 74 23.3 69 20.6 85 85 E 3 6 30.14 1021 10 16 0.00 0.00
4:52 am 04:52 Cloudy 74 23.3 69 20.6 85 85 ESE 7 11 30.13 1020 10 16 0.01 0.13
5:52 am 05:52 Cloudy with Light Rain 74 23.3 69 20.6 85 85 ESE 10 17 30.11 1020 10 16 0.01 0.13
6:43 am 06:43 Cloudy with Heavy Rain 72 22.2 70 21.1 93 93 SE 5 7 30.13 1020 2 3 0.18 4.57
6:52 am 06:52 Cloudy with Heavy Rain 72 22.2 70 21.1 93 93 ESE 8 13 30.12 1020 2 2 0.34 8.64
7:19 am 07:19 Cloudy with Rain 72 22.2 70 21.1 93 93 E 9 15 30.12 1020 3 4 0.35 8.89
7:22 am 07:22 Cloudy with Rain 72 22.2 70 21.1 93 93 E 9 15 30.12 1020 3 5 0.36 9.14
7:52 am 07:52 Cloudy with Light Rain 72 22.2 70 21.1 93 93 VRB 6 9 30.11 1020 6 10 0.41 10.41
7:56 am 07:56 Cloudy with Rain 72 22.2 70 21.1 93 93 VRB 6 9 30.11 1020 3 4 0.01 0.25
8:20 am 08:20 Cloudy with Light Rain 72 22.2 70 21.1 93 93 SW 3 6 30.11 1020 6 10 0.04 1.02
8:52 am 08:52 Cloudy with Light Rain 72 22.2 70 21.1 93 93 Calm 30.10 1019 3 5 0.05 1.27
9:01 am 09:01 Cloudy with Light Rain 72 22.2 70 21.1 93 93 Calm 30.11 1020 2 3 0.01 0.13
9:14 am 09:14 Cloudy with Rain 72 22.2 70 21.1 93 93 Calm 30.11 1020 2 3 0.01 0.25
9:52 am 09:52 Cloudy with Light Rain 73 22.8 71 21.7 94 94 S 6 9 30.10 1019 3 5 0.05 1.27
9:59 am 09:59 Cloudy with Light Rain 73 22.8 71 21.7 94 94 S 8 13 30.10 1019 2 3 0.01 0.13
10:08 am 10:08 Cloudy with Light Rain 73 22.8 71 21.7 94 94 SSE 8 13 30.10 1019 2 3 0.01 0.25
10:33 am 10:33 Cloudy 74 23.3 72 22.2 94 94 S 9 15 30.10 1019 7 11 0.01 0.25
10:52 am 10:52 Cloudy 74 23.3 72 22.2 94 94 S 8 13 30.09 1019 10 16 0.01 0.25
11:52 am 11:52 Cloudy 76 24.4 73 22.8 91 91 SSW 7 11 30.08 1019 10 16 0.00 0.00
11:59 am 11:59 Cloudy 76 24.4 73 22.8 91 91 S 6 9 30.08 1019 10 16 0.00 0.00
12:52 pm 12:52 Cloudy 76 24.4 73 22.8 91 91 SSW 6 9 30.06 1018 10 16 0.00 0.00
1:03 pm 13:03 Cloudy 77 25 73 22.8 88 88 SSW 8 13 30.06 1018 10 16 0.00 0.00
1:17 pm 13:17 Cloudy 77 25 73 22.8 88 88 S 8 13 30.05 1018 10 16 0.00 0.00
1:52 pm 13:52 Cloudy with Light Rain 77 25 73 22.8 88 88 SSW 7 11 30.04 1017 8 13 0.01 0.13
2:25 pm 14:25 Cloudy 79 26.1 74 23.3 85 85 Calm 30.03 1017 10 16 0.01 0.13
2:52 pm 14:52 Cloudy 79 26.1 73 22.8 82 82 SSE 3 6 30.01 1016 10 16 0.01 0.13
3:13 pm 15:13 Cloudy 80 26.7 74 23.3 82 82 SSE 6 9 30.00 1016 10 16 0.00 0.00
3:52 pm 15:52 Mostly Cloudy 80 26.7 73 22.8 79 79 S 7 11 29.98 1015 10 16 0.00 0.00
4:52 pm 16:52 Cloudy 81 27.2 74 23.3 79 79 S 5 7 29.96 1015 10 16 0.01 0.13
5:52 pm 17:52 Mostly Cloudy 81 27.2 74 23.3 79 79 S 8 13 29.96 1015 10 16 0.00 0.00
6:52 pm 18:52 Mostly Cloudy 80 26.7 73 22.8 79 79 S 6 9 29.95 1014 10 16 0.00 0.00
7:52 pm 19:52 Mostly Cloudy 76 24.4 72 22.2 88 88 S 10 17 29.96 1014 10 16 0.00 0.00
8:52 pm 20:52 Mostly Cloudy 76 24.4 72 22.2 88 88 S 7 11 29.96 1015 10 16 0.00 0.00
9:00 pm 21:00 Mostly Cloudy 76 24.4 73 22.8 91 91 SSW 6 9 29.96 1014 10 16 0.00 0.00
9:52 pm 21:52 Mostly Cloudy 75 23.9 72 22.2 90 90 S 7 11 29.96 1014 10 16 0.00 0.00
10:26 pm 22:26 Mostly Cloudy 76 24.4 73 22.8 91 91 SSW 7 11 29.95 1014 10 16 0.00 0.00
10:52 pm 22:52 Mostly Cloudy 75 23.9 73 22.8 94 94 SSW 7 11 29.94 1014 10 16 0.00 0.00
11:15 pm 23:15 Mostly Cloudy 75 23.9 73 22.8 94 94 SSW 5 7 29.94 1014 10 16 0.00 0.00
11:52 pm 23:52 Cloudy 75 23.9 73 22.8 94 94 SSW 6 9 29.94 1014 10 16 0.00 0.00

Powered by AerisWeather